Regional Weather Roundup
Issued by NWS Pendleton, OR

Home | Current Version | Previous Version | Text Only | Print | Product List | Glossary On
Versions: 1 2 3 4 5 6 7 8 9 10 11 12 13 14 15 16 17 18 19 20 21 22 23 24 25 26 27 28 29 30 31 32 33 34 35 36 37 38 39 40 41 42 43 44 45 46 47 48 49 50
000
ASUS46 KPDT 231925
RWRPDT
PENDLETON REGIONAL WEATHER ROUNDUP
NATIONAL WEATHER SERVICE PENDLETON OREGON
1200 PM PDT TUE SEP 23 2014

NOTE: FAIR INDICATES FEW OR NO CLOUDS BELOW 12,000 FEET WITH NO
SIGNIFICANT WEATHER AND/OR OBSTRUCTIONS TO VISIBILITY.

# INDICATES UNOFFICIAL STATION AND DATA

WAZ520-232010-
EAST SLOPES OF WASHINGTON CASCADES

CITY            SKY/WX      TMP DP  RH  WIND    PRES   REMARKS
#CLE ELUM HS    N/A         57  52  83  CALM    29.86F
#CLE ELUM 2NW   N/A         57  51  80  CALM    N/A
#CLE ELUM LAKE  N/A         59  52  78  S3      29.79F
#CLIFFDEL 2NW   N/A         54  50  86  CALM    N/A
#GLENWOOD       N/A         63  55  75  CALM    29.83S
#MANASTASH CYN  N/A         62  50  65  CALM    29.89F
#NELSON         N/A         57  53  86  CALM    29.85F
#NELSON 3SW     N/A         56  52  86  CALM    30.01F
#NILE           N/A         61  50  67  W3      29.11S
#TEANAWAY 4NE   N/A         57  54  90  CALM    N/A
#TROUT LAKE 1NE N/A         65  55  70  CALM    29.83S
$$

WAZ521-232010-
SIMCOE HIGHLANDS

CITY            SKY/WX      TMP DP  RH  WIND    PRES   REMARKS
#BICKLETON HS   N/A         68  38  33  SW7     30.00S
#CENTERVILLE 4W N/A         70  49  47  W3      29.65S
#CENTERVILLE 1SWN/A         68  48  49  CALM    29.80S
#GOLDENDALE     N/A         68  46  45  S2      N/A
#GOLDENDALE 1NE N/A         68  41  37  SW2     N/A
#GOLDENDALE 1S  N/A         69  48  47  CALM    29.86S
#GOLDENDALE 5WNWN/A         70  49  47  CALM    29.80S
#GOODNOE HILLS  N/A         74  51  44  W10     29.81S
#LYLE 6NE       N/A         66  49  54  CALM    29.78F
$$

WAZ026-232010-
KITTITAS VALLEY

CITY            SKY/WX      TMP DP  RH  WIND    PRES   REMARKS
ELLENSBURG AP   MOCLDY      66  56  70  SW7     29.89F
#ELLENSBURG CWU N/A         62  55  78  S5      29.80F
#ELLENSBURG 3NE N/A         61  56  84  CALM    29.89F
#ELLENSBURG     N/A         67  58  73  S1      N/A
#KITTITAS 3S    N/A         60  55  84  CALM    29.82F
#THORP 6N       N/A         59  51  75  W2      29.83F
$$

WAZ027-232010-
YAKIMA VALLEY

CITY            SKY/WX      TMP DP  RH  WIND    PRES   REMARKS
SUNNYSIDE AP    CLOUDY      70  52  53  S3      29.84F
YAKIMA AIRPORT  PTCLDY      71  49  46  CALM    29.85F
#COWICHE 1N     N/A         66  50  56  N1      30.05S
#DONALD 2NE     N/A         76  55  48  E1      30.18S
#GRANDVIEW      N/A         72  51  48  CALM    29.82F
#MABTON         N/A         72  53  51  CALM    29.83F
#MOXEE 2E       N/A         68  36  31  SW3     29.79F
#NACHES 2SW     N/A         67  52  59  CALM    29.89S
#SELAH 8E       N/A         72  46  39  N2      N/A
#TERRACE HTS    N/A         68  52  57  CALM    29.77F
#TOPPENISH      N/A         70  53  55  CALM    29.73F
#WAPATO 4NE     N/A         76  55  48  E1      30.18S
#W YAKIMA       N/A         68  52  57  W2      29.81S
#WHITE SWAN 5E  N/A         71  54  55  CALM    29.81S
#WILEY CITY 3W  N/A         69  51  53  CALM    29.87S
$$

WAZ028-232010-
LOWER COLUMBIA BASIN...WASHINGTON

CITY            SKY/WX      TMP DP  RH  WIND    PRES   REMARKS
HANFORD         CLOUDY      75  55  50  N5      29.82F
PASCO           CLOUDY      74  60  62  CALM    29.84S
PROSSER AWOS    N/A         73  50  44  SW1     29.87F
#BASIN CITY 5SW N/A         72  61  68  CALM    29.83F
#BENTON CITY    N/A         73  56  55  CALM    29.71F
#CONNELL 5N     N/A         76  58  54  CALM    29.80S
#CONNELL 5NW    N/A         75  58  56  CALM    29.76F
#ELTOPIA        N/A         75  61  62  CALM    29.77F
#ELTOPIA 6NW    N/A         73  60  64  CALM    28.82F
#KENNEWICK 3S   N/A         74  55  51  SW1     29.81S
#PASCO-BROADMOORN/A         78  60  54  CALM    29.71S
#PATERSON       N/A         70  55  59  CALM    29.80F
#PROSSER        N/A         73  49  43  CALM    29.80F
#SAGEMOOR 2W    N/A         72  61  68  CALM    29.67S
#TOUCHET 2S     N/A         75  65  71  E1      29.79F
#WEST PASCO     N/A         76  62  62  CALM    29.81F
$$

WAZ029-232010-
FOOTHILLS OF THE BLUES...WASHINGTON

CITY            SKY/WX      TMP DP  RH  WIND    PRES   REMARKS
WALLA WALLA AP  CLOUDY      77  57  50  CALM    29.87F
#DAYTON SCHOOL  N/A         77  55  47  W5      29.86S
#LOWDEN 2SE     N/A         78  59  52  CALM    29.80F
#PLEASANT VIEW 1N/A         79  54  42  S10     29.83S
#PRESCOTT       N/A         80  60  51  W3      29.79F
#SUDBURY        N/A         79  N/A N/A CALM    N/A
#WHITMAN COLLEGEN/A         77  59  54  CALM    29.85F
#WAITSBURG 8N   N/A         78  44  30  S10     29.79S
#WALLA WALLA 5E N/A         68  59  73  W7      N/A
#WALLA WALLA U  N/A         77  60  56  CALM    29.80F
#WHITMAN MISSIONN/A         75  63  66  CALM    29.82F
$$

WAZ030-232010-
BLUE MOUNTAINS...WASHINGTON

CITY            SKY/WX      TMP DP  RH  WIND    PRES   REMARKS
$$

ORZ009-041-WAZ024-232010-
COLUMBIA RIVER GORGE

CITY            SKY/WX      TMP DP  RH  WIND    PRES   REMARKS
HOOD RIVER AP   PTCLDY      66  54  65  S3      29.86F
THE DALLES AP   CLOUDY      70  51  51  CALM    29.84F
#ARLINGTON AIRPON/A         74  51  44  NW6     29.95R
#ARLINGTON HS   N/A         77  52  42  N7      29.72S
#MARYHILL 2W    N/A         68  55  63  CALM    N/A
#MOSIER 1S      N/A         66  45  47  CALM    29.88S
#MURDOCK        N/A         68  56  65  NW3     29.85F
#RUFUS DOT      N/A         N/A N/A N/A S3      N/A

$$

ORZ510-232010-
NORTH CENTRAL OREGON

CITY            SKY/WX      TMP DP  RH  WIND    PRES   REMARKS
#CHENOWITH 1W   N/A         65  46  50  NW3     N/A
#COW CYN RST AREN/A         68  48  49  SW3     N/A
#DUFUR 9E       N/A         65  50  58  NE1     29.85F
#GRASS VALLEY   N/A         68  47  47  SW3     N/A
#GRASS VALLEY 1SN/A         70  49  47  W1      29.84S
#KENT DOT       N/A         71  46  41  SW8     N/A
#MAUPIN SCHOOL  N/A         69  51  53  CALM    28.74F
#MORO SCHOOL    N/A         71  54  55  CALM    29.90S
#SHANIKO 5WSW   N/A         68  45  44  S10     N/A
#SHANIKO 4NW    N/A         67  45  45  SW3     29.95S
#TYGH VALLEY 2NEN/A         67  52  59  CALM    29.81F
#WAPANITIA AIRPON/A         69  48  47  CALM    29.82S
#WASCO DOT      N/A         72  53  51  W3      N/A
#WASCO 5NE      N/A         72  51  48  W3      29.82R
$$

ORZ511-232010-
CENTRAL OREGON

CITY            SKY/WX      TMP DP  RH  WIND    PRES   REMARKS
BEND AIRPORT    CLOUDY      73  45  37  S16     29.96F
MADRAS AIRPORT  MOCLDY      72  48  43  W3      29.93F
REDMOND AIRPORT CLOUDY      72  45  38  S8      29.94F
#BEND 6E        N/A         72  43  35  CALM    29.74F
#BEND 1SW       N/A         72  49  44  SW1     N/A
#BEND-AWBREY    N/A         72  49  44  NE7     29.80F
#BEND-KIM LN    N/A         72  52  49  SW5     29.93F
#CROOKED RVR RANN/A         75  50  41  W8      29.77F
#CULVER         N/A         73  50  44  SE7     29.87F
#LAKE BILLY CHINN/A         69  10  10  CALM    29.95F
#POWELL BUTTE 3EN/A         73  47  40  S8      N/A
#POWELL BUTTE   N/A         73  48  41  SW8     29.60F
#PRINEVILLE 3N  N/A         72  54  53  CALM    29.76F


ORZ509-232010-
EAST SLOPES OF OREGON CASCADES

CITY            SKY/WX      TMP DP  RH  WIND    PRES   REMARKS
#CAMP SHERMAN   N/A         69  47  45  CALM    29.80F
#LA PINE DOT    N/A         70  42  36  S12     N/A
#LA PINE 4NW    N/A         67  49  52  SW3     29.86F
#LAVA BUTTE DOT N/A         68  44  42  SW3     N/A
#SISTERS AIRPOR N/A         69  54  59  CALM    29.91S
#SISTERS ODOT   N/A         71  N/A N/A CALM    N/A
#SISTERS 3N     N/A         70  50  49  CALM    N/A
#SUNRIVER       N/A         67  51  56  S2      29.71F
#SUNRIVER AP    N/A         65  49  56  SW6     29.79F
#SUTTLE LK DOT  N/A         62  49  62  CALM    N/A
#TUMALO 3W      N/A         70  48  46  S8      29.68F
#WANOGA BUTTE D N/A         57  45  64  W8      N/A

$$

ORZ044-232010-
LOWER COLUMBIA BASIN...OREGON

CITY            SKY/WX      TMP DP  RH  WIND    PRES   REMARKS
HERMISTON       CLOUDY      73  53  49  CALM    29.84F
#BOARDMAN SCHOOLN/A         60  53  78  CALM    29.81F
#BOARDMAN 3W    N/A         76  57  52  NE3     29.53F
#BOARDMAN 8SW   N/A         75  55  50  W3      29.81F
#ECHO 8SW       N/A         74  55  51  CALM    29.82F
#IONE SCHOOL    N/A         74  56  53  W3      29.83F
#IRRIGON 4NW    N/A         70  57  63  NW3     N/A
#UMATILLA       N/A         72  54  53  CALM    29.81F
$$

ORZ507-232010-
NORTHERN FOOTHILLS OF THE BLUES

CITY            SKY/WX      TMP DP  RH  WIND    PRES   REMARKS
PENDLETON AIRPT CLOUDY      71  53  53  N6      29.86F
#ADAMS 3WNW     N/A         75  63  66  CALM    29.80F
#ATHENA         N/A         76  60  58  W2      29.82F
#HELIX SCHOOL   N/A         72  59  64  SW2     29.80F
#HELIX 3N       N/A         72  58  61  SW3     29.86F
#HELIX 6SW      N/A         71  56  59  CALM    29.87F
#HOLDMAN 5SE    N/A         74  54  50  W2      29.87F
#HOLDMAN 6E     N/A         72  53  51  N3      29.62F
#M-F GROVE ELEM N/A         73  58  59  CALM    29.85S
#M-FREEWATER 5SEN/A         79  64  60  CALM    29.85F
#PENDLETON DNTN N/A         72  65  79  CALM    29.88S
#PDT AQUATIC CTRN/A         72  61  68  VRB3    29.85F
#PENDLETON 5NE  N/A         75  60  60  CALM    29.83F
#PDT SUNRIDGE   N/A         73  57  57  CALM    29.86F
#PENDLETON 7NW  N/A         71  56  59  CALM    25.37F
#PILOT ROCK     N/A         80  51  36  S8      29.89F
#TUTUILLA       N/A         73  58  59  NE2     29.82F
#UMAPINE 2E     N/A         75  63  66  E1      29.81F

$$

ORZ508-232010-
SOUTHERN FOOTHILLS OF THE BLUES

CITY            SKY/WX      TMP DP  RH  WIND    PRES   REMARKS
LEXINGTON       CLOUDY      77  55  47  N5      29.88F
#AJAX           N/A         72  47  41  W8      29.85S
#CONDON SCHOOL  N/A         73  54  51  CALM    29.88F
#CONDON 5W      N/A         68  52  57  S8      29.92F
#FOSSIL SCHOOL  N/A         76  51  42  S9      29.89F
#HEPPNER 4NE    N/A         76  50  40  S5      29.79F
#LEXINGTON 2SE  N/A         77  57  50  NW2     29.80F
#MIKKALO        N/A         74  49  41  NW7     29.88F
#OLEX 4N        N/A         73  52  48  W1      29.85S
#RUGGS 5NE      N/A         75  50  41  S12     30.07S
#RUGGS 2SW      N/A         77  49  37  SW10    29.80F

$$

ORZ502-503-232010-
BLUE MOUNTAINS

CITY            SKY/WX      TMP DP  RH  WIND    PRES   REMARKS
MEACHAM         CLOUDY      70  55  59  CALM    29.99F
#BATTLE MTN DOT N/A         66  54  65  S14     N/A
#HARDMAN 10S    N/A         66  49  54  S7      30.05F
#HEPPNER 15SE   N/A         73  49  43  S2      29.89F
#LADD CYN SMT   N/A         67  48  50  E10     N/A
#LADD CREEK ODOTN/A         71  53  53  SW3     N/A
#N POWDER DOT   N/A         69  55  61  S15     N/A
#PIKES PEAK     N/A         70  53  55  SW15    27.99S
#TOLLGATE       N/A         64  51  63  SW1     29.98S
#TROY SCHOOL    N/A         69  62  78  CALM    29.71F
#UKIAH          N/A         72  53  51  S3      29.85F
#WESTON 4E      N/A         73  51  46  SE6     29.76F
$$

ORZ505-232010-
JOHN DAY BASIN

CITY            SKY/WX      TMP DP  RH  WIND    PRES   REMARKS
JOHN DAY        CLOUDY      75  44  33  SW12    30.01F
#JOHN DAY KJDY  N/A         74  54  50  CALM    30.15R
#MONUMENT HS    N/A         67  58  73  CALM    29.94F
#MT. VERNON 5SE N/A         70  45  41  SE5     29.97F
#WINLOCK        N/A         74  52  46  CALM    30.03F
$$

ORZ506-232010-
OCHOCO AND JOHN DAY HIGHLANDS

CITY            SKY/WX      TMP DP  RH  WIND    PRES   REMARKS
#BUCK CREEK DOT N/A         71  49  46  CALM    N/A
#HORSE RIDGE DO N/A         67  46  47  S14     N/A
#KEYES SMT DOT  N/A         69  -40  1  S8      N/A
#PAULINA SCHOOL N/A         72  48  43  SW7     30.01S
#PINE MTN OBS   N/A         56  44  64  S18G28  N/A
#PRAIRIE CITY   N/A         72  51  48  CALM    29.85F
#SENECA 9NW     N/A         68  45  44  S2      29.85S
$$

ORZ049-232010-
GRANDE RONDE VALLEY

CITY            SKY/WX      TMP DP  RH  WIND    PRES   REMARKS
LA GRANDE       CLOUDY      72  52  49  S16     29.96F
#COVE           N/A         68  63  84  CALM    29.90F
#COVE SCHOOL    N/A         68  61  78  CALM    29.96F
#COVE 6NW       N/A         65  57  75  CALM    29.90F
#ELGIN 3N       N/A         71  55  57  SW7     29.69F
#ELGIN 1E       N/A         67  59  75  CALM    N/A
#IMBLER SCHOOL  N/A         70  59  68  S7      29.93F
#LADD CYN DOT   N/A         71  51  49  S14     N/A
#LA GRANDE ELEM N/A         70  58  66  SW3     29.95F
#UNION 1S       N/A         73  58  59  SW7     29.77F
$$

ORZ050-232010-
WALLOWA COUNTY

CITY            SKY/WX      TMP DP  RH  WIND    PRES   REMARKS
JOSEPH AIRPORT  PTCLDY      66  54  65  W3      30.04R
#ENTERPRISE AP  N/A         62  54  75  W7      29.96R
#ENTERPRISE HS  N/A         63  56  78  NW3     30.01F
#IMNAHA SCHOOL  N/A         70  58  66  CALM    29.82F
#IMNAHA 10S     N/A         76  53  45  SW10    29.95S
#JOSEPH 3N      N/A         63  56  78  NW9     30.03S
#JOSEPH 3W      N/A         65  54  68  NE2     29.89R
#LOSTINE        N/A         66  56  70  CALM    29.68F
#MT HOWARD 8000 N/A         55  40  57  SW6     30.24R
#PROMISE 1S     N/A         65  56  73  E2      29.97F
#SHEEP RDG 7000 N/A         60  40  47  CALM    29.83S
#WALLOWA SCHOOL N/A         66  58  75  CALM    30.77F



$$



USA.gov is the U.S. government's official web portal to all federal, state and local government web resources and services.